map of MAN home
Great Circle Mapper logo
MAN - Airport
Location
City:  Manchester, England, United Kingdom
Name:Ringway International Airport
ICAO / IATA:EGCC / MAN

Details
Type:Airport (Aerodrome, Airfield)
Use:Public/Civil, International (customs port of entry)
Latitude:5321'14"N (53.353889)
Longitude:216'30"W (-2.274999)
Elevation:257 ft (78 m)
Variation:1.88W (WMM2015 magnetic declination)
0.16 annual change
Runways:2
Longest:10007 × 148 ft (3050 × 45 m), paved

Time
Time Zone:UTC+0 (DST+1)
Local Time:

Weather
METAR:EGCC 211320Z 34004KT 290V040 CAVOK 18/05 Q1035 NOSIG
TAF:EGCC 211058Z 2112/2218 VRB03KT CAVOK
BECMG 2203/2206 8000 PROB30 2203/2207 4000 BR
BECMG 2207/2210 9999 PROB30 2209/2214 BKN040

Related Locations
Nearby:
Farthest:NZBA: 11826 mi / 19033 km
Balclutha, NZ

Find:

   beyond  
but within

Other Information
Maps:
NOTAMs:
Links:
Sources:

  
flag of United Kingdom
flag of England
  

Airport Diagram

Airport diagram for MAN

Airport diagram PDF

Sectional Chart

Flight Planning
at skyvector.com

Satellite Image

Google Maps Satellite View

 

Copyright © 2004-2015 Karl L. Swartz. All rights reserved.
The Great Circle Mapper name and logo are trademarks of the Great Circle Mapper.
All other trademarks mentioned herein belong to their respective owners.
Please see credits for attibutions and further copyright information.

  Follow gcmap on Facebook Follow gcmap on Twitter Follow gcmap on Google+

hCard Microformat

Geo Microformat